Location: Baia Mare
(47.6567°N, 23.5850°E)
Time: 13:48:05
(UTC+03:00)

ISS - Pass Details

Date: 11 July 2019
Orbit: 409 x 418 km, 51.6° (Epoch: 21 July)

Event Time Altitude Azimuth Distance (km) Brightness Sun altitude
Exits shadow 03:27:02 11° 275° (W) 1,406 -1.3 -15.5°
Maximum altitude 03:30:03 46° 349° (N) 565 -2.8 -15.2°
Drops below altitude 10° 03:33:16 10° 64° (ENE) 1,479 -0.1 -15.0°
Sets 03:35:25 0° 71° (ENE) 2,341 0.8 -14.8°
